Time,TemperatureF,DewpointF,PressureIn,WindDirection,WindDirectionDegrees,WindSpeedMPH,WindSpeedGustMPH,Humidity,HourlyPrecipIn,Conditions,Clouds,dailyrainin,SolarRadiationWatts/m^2,SoftwareType,DateUTC
2013-04-12 00:00:00,35.9,33.8,30.06,ENE,76,4.0,11.0,92,0.00,,---,0.26,0.00,VWS V14.01,2013-04-12 04:00:00,
2013-04-12 00:26:00,36.1,34.0,30.05,ENE,78,5.0,13.0,92,0.00,,---,0.00,0.00,VWS V14.01,2013-04-12 04:26:00,
2013-04-12 00:30:00,36.1,34.0,30.05,ENE,78,5.0,13.0,92,0.00,,---,0.00,0.00,VWS V14.01,2013-04-12 04:30:00,
2013-04-12 00:56:00,36.5,33.8,30.02,NE,53,10.0,18.0,90,0.00,,---,0.00,0.00,VWS V14.01,2013-04-12 04:56:00,
2013-04-12 01:00:00,36.5,33.8,30.02,NE,53,10.0,18.0,90,0.00,,---,0.00,0.00,VWS V14.01,2013-04-12 05:00:00,
2013-04-12 01:26:00,36.2,33.3,30.00,ENE,67,8.0,14.0,89,0.00,,---,0.00,0.00,VWS V14.01,2013-04-12 05:26:00,
2013-04-12 01:30:00,36.2,33.3,30.00,ENE,67,8.0,14.0,89,0.00,,---,0.00,0.00,VWS V14.01,2013-04-12 05:30:00,
2013-04-12 01:56:00,35.4,33.0,29.98,ENE,57,8.0,14.0,91,0.04,,---,0.04,0.00,VWS V14.01,2013-04-12 05:56:00,
2013-04-12 02:00:00,35.4,33.0,29.98,ENE,57,8.0,14.0,91,0.04,,---,0.04,0.00,VWS V14.01,2013-04-12 06:00:00,
2013-04-12 02:26:00,35.0,32.9,29.96,East,88,3.0,13.0,92,0.17,,---,0.17,0.00,VWS V14.01,2013-04-12 06:26:00,
2013-04-12 02:30:00,35.0,32.9,29.96,East,88,3.0,13.0,92,0.17,,---,0.17,0.00,VWS V14.01,2013-04-12 06:30:00,
2013-04-12 02:56:00,34.8,33.0,29.92,ENE,59,7.0,18.0,93,0.17,,---,0.17,0.00,VWS V14.01,2013-04-12 06:56:00,
2013-04-12 03:00:00,34.8,33.0,29.92,ENE,59,7.0,18.0,93,0.17,,---,0.17,0.00,VWS V14.01,2013-04-12 07:00:00,
2013-04-12 03:26:00,34.8,33.0,29.91,ESE,117,4.0,18.0,93,0.13,,---,0.17,0.00,VWS V14.01,2013-04-12 07:26:00,
2013-04-12 03:30:00,34.8,33.0,29.91,ESE,117,4.0,18.0,93,0.13,,---,0.17,0.00,VWS V14.01,2013-04-12 07:30:00,
2013-04-12 03:56:00,34.8,33.2,29.89,East,94,7.0,19.0,94,0.00,,---,0.17,0.00,VWS V14.01,2013-04-12 07:56:00,
2013-04-12 04:00:00,34.8,33.2,29.89,East,94,7.0,19.0,94,0.00,,---,0.17,0.00,VWS V14.01,2013-04-12 08:00:00,
2013-04-12 04:26:00,34.7,33.2,29.88,SSE,148,2.0,12.0,94,0.00,,---,0.17,0.00,VWS V14.01,2013-04-12 08:26:00,
2013-04-12 04:30:00,34.7,33.2,29.88,SSE,148,2.0,12.0,94,0.00,,---,0.17,0.00,VWS V14.01,2013-04-12 08:30:00,
2013-04-12 04:56:00,34.8,33.2,29.87,ENE,77,10.0,13.0,94,0.01,,---,0.18,0.00,VWS V14.01,2013-04-12 08:56:00,
2013-04-12 05:00:00,34.8,33.2,29.87,ENE,77,10.0,13.0,94,0.01,,---,0.18,0.00,VWS V14.01,2013-04-12 09:00:00,
2013-04-12 05:26:00,35.0,33.5,29.87,East,95,2.0,15.0,94,0.01,,---,0.18,0.00,VWS V14.01,2013-04-12 09:26:00,
2013-04-12 05:30:00,35.0,33.5,29.87,East,95,2.0,15.0,94,0.01,,---,0.18,0.00,VWS V14.01,2013-04-12 09:30:00,
2013-04-12 05:56:00,35.4,33.8,29.85,East,92,4.0,10.0,94,0.01,,---,0.18,0.00,VWS V14.01,2013-04-12 09:56:00,
2013-04-12 06:00:00,35.4,33.8,29.85,East,92,4.0,10.0,94,0.01,,---,0.18,0.00,VWS V14.01,2013-04-12 10:00:00,
2013-04-12 06:26:00,35.6,34.0,29.84,East,85,2.0,12.0,94,0.00,,---,0.18,0.00,VWS V14.01,2013-04-12 10:26:00,
2013-04-12 06:30:00,35.6,34.0,29.84,East,85,2.0,12.0,94,0.00,,---,0.18,0.00,VWS V14.01,2013-04-12 10:30:00,
2013-04-12 06:56:00,35.7,34.2,29.81,East,88,4.0,11.0,94,0.02,,---,0.20,0.00,VWS V14.01,2013-04-12 10:56:00,
2013-04-12 07:00:00,35.7,34.2,29.81,East,88,4.0,11.0,94,0.02,,---,0.20,0.00,VWS V14.01,2013-04-12 11:00:00,
2013-04-12 07:26:00,36.4,34.8,29.79,ESE,103,4.0,10.0,94,0.04,,---,0.22,5.00,VWS V14.01,2013-04-12 11:26:00,
2013-04-12 07:30:00,36.4,34.8,29.79,ESE,103,4.0,10.0,94,0.04,,---,0.22,5.00,VWS V14.01,2013-04-12 11:30:00,
2013-04-12 07:56:00,37.1,35.5,29.77,ESE,108,4.0,10.0,94,0.08,,---,0.26,7.00,VWS V14.01,2013-04-12 11:56:00,
2013-04-12 08:00:00,37.1,35.5,29.77,ESE,108,4.0,10.0,94,0.08,,---,0.26,7.00,VWS V14.01,2013-04-12 12:00:00,
2013-04-12 08:27:00,37.8,36.2,29.75,East,98,8.0,14.0,94,0.10,,---,0.30,19.00,VWS V14.01,2013-04-12 12:27:00,
2013-04-12 08:30:00,37.8,36.2,29.75,East,98,8.0,14.0,94,0.10,,---,0.30,19.00,VWS V14.01,2013-04-12 12:30:00,
2013-04-12 08:56:00,38.6,37.3,29.74,SE,126,2.0,13.0,95,0.14,,---,0.36,16.00,VWS V14.01,2013-04-12 12:56:00,
2013-04-12 09:00:00,38.6,37.3,29.74,SE,126,2.0,13.0,95,0.14,,---,0.36,16.00,VWS V14.01,2013-04-12 13:00:00,
2013-04-12 09:26:00,40.9,39.6,29.73,SE,131,14.0,21.0,95,0.22,,---,0.48,42.00,VWS V14.01,2013-04-12 13:26:00,
2013-04-12 09:30:00,40.9,39.6,29.73,SE,131,14.0,21.0,95,0.22,,---,0.48,42.00,VWS V14.01,2013-04-12 13:30:00,
2013-04-12 09:56:00,41.4,39.8,29.72,SE,124,5.0,19.0,94,0.24,,---,0.54,54.00,VWS V14.01,2013-04-12 13:56:00,
2013-04-12 10:00:00,41.4,39.8,29.72,SE,124,5.0,19.0,94,0.24,,---,0.54,54.00,VWS V14.01,2013-04-12 14:00:00,
2013-04-12 10:26:00,41.6,40.0,29.71,SE,130,9.0,20.0,94,0.23,,---,0.59,49.00,VWS V14.01,2013-04-12 14:26:00,
2013-04-12 10:30:00,41.6,40.0,29.71,SE,130,9.0,20.0,94,0.23,,---,0.59,49.00,VWS V14.01,2013-04-12 14:30:00,
2013-04-12 10:56:00,41.9,40.6,29.70,South,178,5.0,18.0,95,0.18,,---,0.66,53.00,VWS V14.01,2013-04-12 14:56:00,
2013-04-12 11:00:00,41.9,40.6,29.70,South,178,5.0,18.0,95,0.18,,---,0.66,53.00,VWS V14.01,2013-04-12 15:00:00,
2013-04-12 11:26:00,42.7,41.1,29.70,SE,132,12.0,24.0,94,0.17,,---,0.71,114.00,VWS V14.01,2013-04-12 15:26:00,
2013-04-12 11:30:00,42.7,41.1,29.70,SE,132,12.0,24.0,94,0.17,,---,0.71,114.00,VWS V14.01,2013-04-12 15:30:00,
2013-04-12 11:56:00,44.4,41.7,29.69,SSE,148,12.0,25.0,90,0.15,,---,0.74,109.00,VWS V14.01,2013-04-12 15:56:00,
2013-04-12 12:00:00,44.4,41.7,29.69,SSE,148,12.0,25.0,90,0.15,,---,0.74,109.00,VWS V14.01,2013-04-12 16:00:00,
2013-04-12 12:26:00,44.8,42.0,29.68,SE,126,15.0,23.0,90,0.09,,---,0.75,165.00,VWS V14.01,2013-04-12 16:26:00,
2013-04-12 12:30:00,44.8,42.0,29.68,SE,126,15.0,23.0,90,0.09,,---,0.75,165.00,VWS V14.01,2013-04-12 16:30:00,
2013-04-12 12:56:00,45.1,42.9,29.68,ESE,123,8.0,22.0,92,0.05,,---,0.76,244.00,VWS V14.01,2013-04-12 16:56:00,
2013-04-12 13:00:00,45.1,42.9,29.68,ESE,123,8.0,22.0,92,0.05,,---,0.76,244.00,VWS V14.01,2013-04-12 17:00:00,
2013-04-12 13:26:00,45.6,43.1,29.67,NNW,329,4.0,25.0,91,0.02,,---,0.76,255.00,VWS V14.01,2013-04-12 17:26:00,
2013-04-12 13:30:00,45.6,43.1,29.67,NNW,329,4.0,25.0,91,0.02,,---,0.76,255.00,VWS V14.01,2013-04-12 17:30:00,
2013-04-12 13:56:00,45.7,43.2,29.67,SSE,148,12.0,20.0,91,0.01,,---,0.76,153.00,VWS V14.01,2013-04-12 17:56:00,
2013-04-12 14:00:00,45.7,43.2,29.67,SSE,148,12.0,20.0,91,0.01,,---,0.76,153.00,VWS V14.01,2013-04-12 18:00:00,
2013-04-12 14:27:00,47.5,44.7,29.67,SSE,148,8.0,18.0,90,0.00,,---,0.76,178.00,VWS V14.01,2013-04-12 18:27:00,
2013-04-12 14:30:00,47.5,44.7,29.67,SSE,148,8.0,18.0,90,0.00,,---,0.76,178.00,VWS V14.01,2013-04-12 18:30:00,
2013-04-12 15:00:00,49.4,46.0,29.67,SSE,167,4.0,16.0,88,0.00,,---,0.76,139.00,VWS V14.01,2013-04-12 19:00:00,
2013-04-12 15:26:00,50.9,46.6,29.67,SSE,155,8.0,21.0,85,0.00,,---,0.76,111.00,VWS V14.01,2013-04-12 19:26:00,
2013-04-12 15:30:00,50.9,46.6,29.67,SSE,155,8.0,21.0,85,0.00,,---,0.76,111.00,VWS V14.01,2013-04-12 19:30:00,
2013-04-12 15:56:00,51.3,47.3,29.67,SW,220,6.0,13.0,86,0.00,,---,0.76,37.00,VWS V14.01,2013-04-12 19:56:00,
2013-04-12 16:00:00,51.3,47.3,29.67,SW,220,6.0,13.0,86,0.00,,---,0.76,37.00,VWS V14.01,2013-04-12 20:00:00,
2013-04-12 16:26:00,49.7,45.4,29.69,WSW,246,9.0,20.0,85,0.01,,---,0.77,114.00,VWS V14.01,2013-04-12 20:26:00,
2013-04-12 16:30:00,49.7,45.4,29.69,WSW,246,9.0,20.0,85,0.01,,---,0.77,114.00,VWS V14.01,2013-04-12 20:30:00,
2013-04-12 16:56:00,50.1,44.2,29.71,SW,232,9.0,20.0,80,0.01,,---,0.77,202.00,VWS V14.01,2013-04-12 20:56:00,
2013-04-12 17:00:00,50.1,44.2,29.71,SW,232,9.0,20.0,80,0.01,,---,0.77,202.00,VWS V14.01,2013-04-12 21:00:00,
2013-04-12 17:26:00,50.2,42.2,29.73,WSW,250,6.0,23.0,74,0.01,,---,0.77,128.00,VWS V14.01,2013-04-12 21:26:00,
2013-04-12 17:30:00,50.2,42.2,29.73,WSW,250,6.0,23.0,74,0.01,,---,0.77,128.00,VWS V14.01,2013-04-12 21:30:00,
2013-04-12 17:56:00,49.5,41.2,29.75,West,264,13.0,23.0,73,0.00,,---,0.77,244.00,VWS V14.01,2013-04-12 21:56:00,
2013-04-12 18:00:00,49.5,41.2,29.75,West,264,13.0,23.0,73,0.00,,---,0.77,244.00,VWS V14.01,2013-04-12 22:00:00,
2013-04-12 18:26:00,49.6,41.7,29.76,SW,236,15.0,19.0,74,0.00,,---,0.77,274.00,VWS V14.01,2013-04-12 22:26:00,
2013-04-12 18:30:00,49.6,41.7,29.76,SW,236,15.0,19.0,74,0.00,,---,0.77,274.00,VWS V14.01,2013-04-12 22:30:00,
2013-04-12 18:56:00,47.2,40.0,29.77,WSW,245,11.0,22.0,76,0.00,,---,0.77,39.00,VWS V14.01,2013-04-12 22:56:00,
2013-04-12 19:00:00,47.2,40.0,29.77,WSW,245,11.0,22.0,76,0.00,,---,0.77,39.00,VWS V14.01,2013-04-12 23:00:00,
2013-04-12 19:26:00,46.1,39.6,29.78,WSW,242,10.0,24.0,78,0.00,,---,0.77,12.00,VWS V14.01,2013-04-12 23:26:00,
2013-04-12 19:30:00,46.1,39.6,29.78,WSW,242,10.0,24.0,78,0.00,,---,0.77,12.00,VWS V14.01,2013-04-12 23:30:00,
2013-04-12 19:56:00,45.4,39.3,29.81,WSW,251,5.0,24.0,79,0.00,,---,0.77,0.00,VWS V14.01,2013-04-12 23:56:00,
2013-04-12 20:00:00,45.4,39.3,29.81,WSW,251,5.0,24.0,79,0.00,,---,0.77,0.00,VWS V14.01,2013-04-13 00:00:00,
2013-04-12 20:26:00,44.7,38.6,29.82,SW,232,12.0,19.0,79,0.00,,---,0.77,0.00,VWS V14.01,2013-04-13 00:26:00,
2013-04-12 20:30:00,44.7,38.6,29.82,SW,232,12.0,19.0,79,0.00,,---,0.77,0.00,VWS V14.01,2013-04-13 00:30:00,
2013-04-12 20:56:00,43.3,37.9,29.84,West,262,17.0,22.0,81,0.00,,---,0.77,0.00,VWS V14.01,2013-04-13 00:56:00,
2013-04-12 21:00:00,43.3,37.9,29.84,West,262,17.0,22.0,81,0.00,,---,0.77,0.00,VWS V14.01,2013-04-13 01:00:00,
2013-04-12 21:26:00,42.5,36.1,29.86,West,261,7.0,22.0,78,0.00,,---,0.77,0.00,VWS V14.01,2013-04-13 01:26:00,
2013-04-12 21:30:00,42.5,36.1,29.86,West,261,7.0,22.0,78,0.00,,---,0.77,0.00,VWS V14.01,2013-04-13 01:30:00,
2013-04-12 21:56:00,41.4,35.7,29.87,WSW,251,10.0,26.0,80,0.00,,---,0.77,0.00,VWS V14.01,2013-04-13 01:56:00,
2013-04-12 22:00:00,41.4,35.7,29.87,WSW,251,10.0,26.0,80,0.00,,---,0.77,0.00,VWS V14.01,2013-04-13 02:00:00,
2013-04-12 22:26:00,41.3,35.0,29.87,SW,232,10.0,17.0,78,0.00,,---,0.77,0.00,VWS V14.01,2013-04-13 02:26:00,
2013-04-12 22:30:00,41.3,35.0,29.87,SW,232,10.0,17.0,78,0.00,,---,0.77,0.00,VWS V14.01,2013-04-13 02:30:00,
2013-04-12 22:56:00,41.4,35.1,29.86,SW,235,5.0,16.0,78,0.00,,---,0.77,0.00,VWS V14.01,2013-04-13 02:56:00,
2013-04-12 23:00:00,41.4,35.1,29.86,SW,235,5.0,16.0,78,0.00,,---,0.77,0.00,VWS V14.01,2013-04-13 03:00:00,
2013-04-12 23:26:00,41.3,34.7,29.85,SW,215,4.0,15.0,77,0.00,,---,0.77,0.00,VWS V14.01,2013-04-13 03:26:00,
2013-04-12 23:30:00,41.3,34.7,29.85,SW,215,4.0,15.0,77,0.00,,---,0.77,0.00,VWS V14.01,2013-04-13 03:30:00,
2013-04-12 23:56:00,41.1,34.5,29.85,SW,228,6.0,16.0,77,0.00,,---,0.77,0.00,VWS V14.01,2013-04-13 03:56:00,